OpenBCM V1.13 (Linux)

Packet Radio Mailbox

DB0FHN

[JN59NK Nuernberg]

 Login: GUEST





  
F1EBE  > KEPS     28.02.03 12:33l 103 Lines 5487 Bytes #999 (0) @ AMSAT
BID : 23055_F8KOH
Read: DB0FHN GUEST
Subj: 2Line Orbital Elements 03058.AMSAT
Path: DB0FHN<DB0RGB<OK0PPL<RZ6HXA<WA7V<VE1ATT<HA3PG<7M3TJZ<F6BZU<F6BZU<
      F6BZU<F5KCK<F8KAE<F8KOH
Sent: 030228/0825Z @:F8KOH.FNOR.FRA.EU #:23055 [Vernon] FBB7.00i $:23055_F8KOH
From: F1EBE@F8KOH.FNOR.FRA.EU
To  : KEPS@AMSAT

AO-7                    
1 07530U 74089B   03057.67235144 -.00000029  00000-0  10000-3 0  1527
2 07530 101.7595 105.3832 0012212  63.3786 296.8532 12.53564551294207
AO-10                   
1 14129U 83058B   03053.29347507 -.00000135  00000-0  10000-3 0  9207
2 14129  25.9661 163.6642 6025305 329.8586   6.1874  2.05867335120141
UO-11                   
1 14781U 84021B   03057.93831565  .00000806  00000-0  11897-3 0   850
2 14781  98.1192  31.9268 0009352 176.4019 183.7259 14.78017464 17475
UO-14                   
1 20437U 90005B   03057.74809982  .00000078  00000-0  45193-4 0  1771
2 20437  98.2694 100.9692 0010643 172.8728 187.2604 14.31240415683664
AO-16                   
1 20439U 90005D   03058.18105172  .00000066  00000-0  40452-4 0  8577
2 20439  98.3157 113.1168 0010734 178.4857 181.6356 14.31474626683767
DO-17                   
1 20440U 90005E   03057.67910009  .00000126  00000-0  62763-4 0  7491
2 20440  98.3368 116.5488 0010676 178.7356 181.3855 14.31753420683760
WO-18                   
1 20441U 90005F   03057.95167296  .00000096  00000-0  51880-4 0   234
2 20441  98.3313 116.0149 0011570 179.1588 180.9615 14.31556500683787
LO-19                   
1 20442U 90005G   03057.71948015  .00000103  00000-0  54203-4 0  9729
2 20442  98.3446 118.8305 0011652 179.3442 180.7748 14.31719873683803
FO-20                   
1 20480U 90013C   03057.96509175 -.00000050  00000-0 -35751-4 0  4711
2 20480  99.0476  19.1291 0540637 344.8805  13.6668 12.83329947611591
RS-12/13                
1 21089U 91007A   03057.83983977  .00000068  00000-0  56672-4 0  4951
2 21089  82.9235 175.2445 0027599 263.4432  96.3593 13.74405215604923
UO-22                   
1 21575U 91050B   03057.92041289  .00000242  00000-0  91436-4 0  7358
2 21575  98.1416  49.6212 0008391 104.7826 255.4293 14.39160101609487
KO-23                   
1 22077U 92052B   03057.96394380 -.00000037  00000-0  10000-3 0  2003
2 22077  66.0868 108.1491 0015669 271.5674  88.3552 12.86408787495388
AO-27                   
1 22825U 93061C   03058.50529159  .00000056  00000-0  38441-4 0  4967
2 22825  98.2744  87.7468 0007566 229.7500 130.3025 14.28945620491159
IO-26                   
1 22826U 93061D   03058.11410755  .00000096  00000-0  53762-4 0  3186
2 22826  98.2739  88.4942 0007989 233.8890 126.1548 14.29169106491146
KO-25                   
1 22828U 93061F   03058.16238774  .00000061  00000-0  40018-4 0  4354
2 22828  98.2711  88.8050 0009190 208.8050 151.2624 14.29510537459357
POSAT                   
1 22829U 93061G   03057.61015918  .00000137  00000-0  69104-4 0  4617
2 22829  98.2717  88.8898 0009052 210.6659 149.3991 14.29772111491200
RS-15                   
1 23439U 94085A   03057.89672849 -.00000041  00000-0  31120-4 0  6955
2 23439  64.8161  28.0135 0146726 113.5963 248.0444 11.27547623336536
FO-29                   
1 24278U 96046B   03058.41659171 -.00000011  00000-0  24785-4 0  5638
2 24278  98.5379 208.4357 0350377 193.4476 165.7136 13.52872909322501
TO-31                   
1 25396U 98043C   03057.97044452 -.00000043  00000-0  00000-0 0  8930
2 25396  98.6243 134.9078 0003787 107.5577 252.6016 14.23513936240722
GO-32                   
1 25397U 98043D   03057.92521189  .00000038  00000-0  35884-4 0  1481
2 25397  98.6209 133.7381 0002164 112.1282 248.0123 14.22961622240683
SO-33                   
1 25509U 98061B   03058.11426531  .00000542  00000-0  98581-4 0  7897
2 25509  31.4311 104.9011 0357262  17.4574 343.7986 14.27445357226535
PO-34                   
1 25520U 98064B   03057.47011092  .00001667  00000-0  79392-4 0  6531
2 25520  28.4641 171.2373 0005549  77.1835 282.9343 15.13917239238789
ISS              
1 25544U 98067A   03058.50326251  .00023209  00000-0  29927-3 0  7323
2 25544  51.6335 211.1313 0012128 254.4504 230.8041 15.58815316243892
UO-36                   
1 25693U 99021A   03058.28810439 -.00000013  00000-0  18138-4 0  7423
2 25693  64.5607 344.0983 0021177 315.6394  44.3015 14.76396504207545
OO-38                   
1 26063U 00004C   03057.71025071  .00000104  00000-0  56361-4 0  7290
2 26063 100.2062 113.7631 0036737 264.2275  95.4714 14.35484584161550
SO-41                   
1 26545U 00057A   03057.72746122  .00000579  00000-0  95952-4 0  4170
2 26545  64.5599   6.8464 0051582 237.4538 122.1586 14.78999525130427
MO-46                   
1 26548U 00057D   03057.80486726  .00000754  00000-0  11347-3 0  4229
2 26548  64.5586 359.4072 0044902 236.7402 122.9396 14.81294406130593
SO-42                   
1 26549U 00057E   03057.97240558  .00000500  00000-0  87368-4 0  7048
2 26549  64.5540  10.2520 0055924 237.4319 122.1367 14.77936518130384
AO-40                   
1 26609U 00072B   03058.16686962 -.00000267  00000-0  10000-3 0  3121
2 26609   8.1401  62.4789 7944119 148.1042 305.2468  1.25596203 10697
NO-44                   
1 26931U 01043C   03058.55315393  .00000056  00000-0  54531-4 0  4122
2 26931  67.0473 232.4840 0005147 268.6501  91.4009 14.29118761 73630
NO-45                   
1 26932U 01043D   03057.97027898  .00000019  00000-0  40059-4 0  4127
2 26932  67.0539 233.6875 0004652 243.2358 116.8269 14.29296656 73577
AO-49                   
1 27605U 02058A   03058.41576325  .00000309  00000-0  70916-4 0   691
2 27605  64.5552 170.3763 0035969 110.2208 250.2757 14.71384118 10111
SO-50                   
1 27607U 02058C   03057.80675327  .00000583  00000-0  11828-3 0   620
2 27607  64.5520 172.7211 0036896 106.3222 254.1914 14.69920565 10010


Read previous mail | Read next mail


 23.06.2026 21:34:07lGo back Go up